Tracking 19709 objects as of 17-Jun-2019
HD Live streaming from Space Station
objects crossing your sky now

FLOCK 3K 12

Track FLOCK 3K 12 now!
10-day predictions
FLOCK 3K 12 is classified as:


NORAD ID: 43903
Int'l Code: 2018-111AD
Perigee: 484.2 km
Apogee: 515.2 km
Inclination: 97.3 °
Period: 94.5 minutes
Semi major axis: 6870 km
RCS: Unknown
Launch date: December 27, 2018
Source: United States (US)
Launch site: VOSTOCHNY COSMODROME (VOSTO)
aabbcc
Your satellite tracking list
Your tracking list is empty




NASA's NSSDC Master Catalog

Two Line Element Set (TLE):
1 43903U 18111AD  19167.77124177 +.00000679 +00000-0 +30414-4 0  9999
2 43903 097.2904 073.0542 0022576 004.5161 355.6276 15.24397245026152
Source of the keplerian elements: AFSPC